Location: Cannifist
(18.2333°N, 63.0167°W)
Time: 18:32:09
(UTC+00:00)

Hubble Space Telescope - Visible Passes

Search period start: 13 June 2021 00:00
Search period end: 23 June 2021 00:00
Orbit: 535 x 539 km, 28.5° (Epoch: 12 June)

Date Brightness Start Highest point End Pass type
(mag) Time Alt. Az. Time Alt. Az. Time Alt. Az.
13 Jun 2.4 00:32:08 10° NW 00:35:35 25° NNE 00:36:35 23° NE visible
14 Jun 2.3 00:21:08 10° NW 00:24:44 29° NNE 00:26:05 24° NE visible
15 Jun 2.0 00:10:07 10° NW 00:13:52 34° NNE 00:15:35 24° ENE visible
15 Jun 1.7 23:59:06 10° NW 00:03:00 41° NNE 00:05:06 23° ENE visible
16 Jun 3.9 01:40:13 10° W 01:40:24 11° W 01:40:24 11° W visible
16 Jun 1.3 23:48:06 10° WNW 23:52:07 51° NNE 23:54:38 21° E visible
17 Jun 3.6 01:29:27 10° W 01:29:56 13° W 01:29:56 13° W visible
17 Jun 0.9 23:37:07 10° WNW 23:41:12 66° NNE 23:44:12 17° ESE visible
18 Jun 3.5 01:18:47 10° W 01:19:31 14° W 01:19:31 14° W visible
18 Jun 0.7 23:26:09 10° WNW 23:30:16 86° NNE 23:33:48 14° ESE visible
19 Jun 3.4 01:08:17 10° WSW 01:09:07 13° WSW 01:09:07 13° WSW visible
19 Jun 0.9 23:15:14 10° WNW 23:19:19 72° SSW 23:23:25 10° ESE visible
20 Jun 3.4 00:58:03 10° WSW 00:58:45 12° SW 00:58:45 12° SW visible
